Location: Asheville, NC
(35.6000°N, 82.5500°W)
Time: 11:52:29
(UTC-04:00)

STARS - Pass Details

Date: 16 March 2018
Orbit: 626 x 640 km, 98.3° (Epoch: 21 June)

Event Time Altitude Azimuth Distance (km) Brightness Sun altitude
Rises 21:11:02 0° 346° (NNW) 2,926 ? -19.5°
Reaches altitude 10° 21:15:09 10° 308° (NW) 2,008 ? -20.3°
Maximum altitude 21:16:01 11° 296° (WNW) 1,970 ? -20.4°
Drops below altitude 10° 21:16:53 10° 285° (WNW) 2,004 ? -20.6°
Sets 21:20:59 0° 246° (WSW) 2,902 ? -21.4°
